STARLINK-1706

Last updated on Fri Nov 06 2020 00:02:03 GMT+0000 (Coordinated Universal Time)

1 46560U 20070AE 20310.83334491 -.00039158 00000-0 -42332-3 0 9996 2 46560 53.0015 292.9800 0001062 77.8130 3.0988 15.62785958 5584

Satellite not in orbit